Regional Weather Roundup
Issued by NWS

Home | Current Version | Previous Version | Graphics & Text | Print | Product List | Glossary On
Versions: 1 2 3 4 5 6 7 8 9 10 11 12 13 14 15 16 17 18 19 20 21 22 23 24 25 26 27 28 29 30 31 32 33 34 35 36 37 38 39 40 41 42 43 44 45 46 47 48 49 50
000
ASUS43 KLMK 041902
RWRKY
KENTUCKY REGIONAL WEATHER ROUNDUP
NATIONAL WEATHER SERVICE LOUISVILLE KY
300 PM EDT SAT JUL 04 2015

NOTE "FAIR" INDICATES FEW OR NO CLOUDS BELOW 12,000 FEET
WITH NO SIGNIFICANT WEATHER AND/OR OBSTRUCTIONS TO VISIBILITY.

KYZ001>023-026-027-061>063-070>075-042000-
WESTERN AND SOUTH CENTRAL KENTUCKY

CITY           SKY/WX    TMP DP  RH WIND       PRES   REMARKS
PADUCAH        CLOUDY    81  67  62 CALM      29.99S
HENDERSON      PTSUNNY   81  64  57 N5        29.98F
OWENSBORO      PTSUNNY   82  67  60 VRB5      30.00F
HOPKINSVILLE   CLOUDY    80  70  73 NW8       29.98F
BOWLING GREEN  PTSUNNY   80  68  66 N6        29.99S
GLASGOW        NOT AVBL
$$

KYZ024-025-028>034-038-045-046-053-042000-
NORTH CENTRAL KENTUCKY

CITY           SKY/WX    TMP DP  RH WIND       PRES   REMARKS
LOUISVILLE/SDF CLOUDY    83  66  56 N6        29.99F
LOUISVILLE/LOU PTSUNNY   81  65  58 W3        30.00F
FORT KNOX      NOT AVBL
$$

KYZ035>037-039>044-047>052-055>060-089>105-042000-
NORTHEAST KENTUCKY

CITY           SKY/WX    TMP DP  RH WIND       PRES   REMARKS
LEXINGTON      PTSUNNY   80  66  62 NE3       30.02S
COVINGTON      MOSUNNY   78  62  57 N7        30.02S
FRANKFORT      PTSUNNY   79  64  60 NE5       30.00F
$$

KYZ054-064>069-076>088-106>120-042000-
SOUTHEAST KENTUCKY

CITY           SKY/WX    TMP DP  RH WIND       PRES   REMARKS
JACKSON        PTSUNNY   76  67  73 VRB5      30.03S
LONDON         CLOUDY    79  64  60 SW9       30.02F
SOMERSET       NOT AVBL
MIDDLESBORO    NOT AVBL
MONTICELLO     CLOUDY    80  70  71 SW5       30.04S
$$



USA.gov is the U.S. government's official web portal to all federal, state and local government web resources and services.